Location: Caltech
(34.1382°N, 118.1253°W)
Time: 06:53:52
(UTC-07:00)

CZ-2C R/B - Visible Passes

Search period start: 27 June 2017 00:00
Search period end: 07 July 2017 00:00
Orbit: 704 x 908 km, 98.2° (Epoch: 26 June)

Date Brightness Start Highest point End Pass type
(mag) Time Alt. Az. Time Alt. Az. Time Alt. Az.
27 Jun 4.8 01:16:05 27° WNW 01:16:05 27° WNW 01:19:33 10° NW visible
27 Jun 5.0 23:09:58 20° ENE 23:10:18 20° ENE 23:14:19 10° NNE visible
28 Jun 4.1 00:51:02 43° WNW 00:51:02 43° WNW 00:55:16 10° NNW visible
28 Jun 5.5 22:44:55 11° ENE 22:45:51 12° ENE 22:47:45 10° NE visible
29 Jun 3.7 00:25:59 62° NNW 00:25:59 62° NNW 00:30:39 10° NNW visible
30 Jun 3.8 00:00:57 53° NE 00:00:57 53° NE 00:05:46 10° N visible
30 Jun 5.4 01:42:01 15° WNW 01:42:01 15° WNW 01:43:53 10° NW visible
30 Jun 4.3 23:35:54 34° ENE 23:35:54 34° ENE 23:40:36 10° N visible
01 Jul 4.9 01:16:58 25° WNW 01:16:58 25° WNW 01:20:13 10° NW visible
01 Jul 4.9 23:10:52 20° ENE 23:11:03 20° ENE 23:15:04 10° NNE visible
02 Jul 4.2 00:51:56 40° WNW 00:51:56 40° WNW 00:55:57 10° NNW visible
02 Jul 5.4 22:45:50 12° ENE 22:46:35 12° ENE 22:48:33 10° NE visible
03 Jul 3.7 00:26:54 58° NNW 00:26:54 58° NNW 00:31:20 10° NNW visible
04 Jul 3.8 00:01:52 52° NE 00:01:52 52° NE 00:06:27 10° N visible
04 Jul 5.4 01:42:56 14° WNW 01:42:56 14° WNW 01:44:27 10° NW visible
04 Jul 4.3 23:36:50 34° ENE 23:36:50 34° ENE 23:41:18 10° N visible
05 Jul 4.9 01:17:54 23° WNW 01:17:54 23° WNW 01:20:51 10° NW visible
05 Jul 4.9 23:11:48 21° ENE 23:11:48 21° ENE 23:15:46 10° NNE visible
06 Jul 4.3 00:52:52 37° NW 00:52:52 37° NW 00:56:36 10° NNW visible
06 Jul 5.4 22:46:46 12° ENE 22:47:18 12° ENE 22:49:18 10° NE visible
